KE8ZZR Weather Reports


time (UTC)temp
C
wind
direction
speed
KPH
gust
KPH
rain 1hr
cm
rain 24hr
cm
rain mn
cm
humidity
%
barometer
mb
20260504013114 7 0 0.0 0.0 0.00 0.00 0.00 65 1012.4
20260504011556 7 0 0.0 0.0 0.00 0.00 0.00 63 1012.3
20260504010058 8 0 0.0 0.0 0.00 0.00 0.00 61 1012.3
20260504004557 10 0 0.0 1.6 0.00 0.00 0.00 59 1012.2
20260504003054 11 0 0.0 3.2 0.00 0.00 0.00 56 1012.2
20260504001559 11 131 0.0 4.8 0.00 0.00 0.00 52 1012.1
20260504000056 12 276 0.0 4.8 0.00 0.00 0.00 51 1012.2
20260503234622 13 275 1.6 8.0 0.00 0.00 0.00 49 1012.3
20260503233057 13 263 1.6 12.9 0.00 0.00 0.00 47 1012.5
20260503231555 13 272 1.6 8.0 0.00 0.00 0.00 48 1012.4
20260503230054 13 265 4.8 14.5 0.00 0.00 0.00 45 1012.4
20260503224554 14 283 4.8 17.7 0.00 0.00 0.00 44 1012.6
20260503223056 14 297 4.8 16.1 0.00 0.00 0.00 44 1012.6
20260503221601 13 229 3.2 12.9 0.00 0.00 0.00 46 1012.7
20260503220057 14 245 11.3 20.9 0.00 0.00 0.00 42 1012.7
20260503214553 14 139 4.8 16.1 0.00 0.00 0.00 45 1012.9
20260503213053 14 238 6.4 12.9 0.00 0.00 0.00 42 1012.8
20260503211556 15 322 3.2 20.9 0.00 0.00 0.00 43 1013.0
20260503210054 15 251 11.3 24.1 0.00 0.00 0.00 41 1012.9
20260503204557 15 165 3.2 16.1 0.00 0.00 0.00 43 1012.8
20260503203057 15 311 3.2 24.1 0.00 0.00 0.00 44 1012.8
20260503201555 15 220 11.3 22.5 0.00 0.00 0.00 43 1013.0
20260503200058 15 240 3.2 17.7 0.00 0.00 0.00 43 1013.3
20260503194603 15 284 1.6 16.1 0.00 0.00 0.00 44 1013.5
20260503193056 15 91 8.0 27.4 0.00 0.00 0.00 46 1013.7
20260503191557 15 290 11.3 32.2 0.00 0.00 0.00 41 1014.0
20260503190054 15 233 4.8 16.1 0.00 0.00 0.00 40 1014.1
20260503184559 15 199 9.7 22.5 0.00 0.00 0.00 41 1014.3
20260503183057 14 274 11.3 27.4 0.00 0.00 0.00 44 1014.5
20260503181557 14 287 11.3 22.5 0.00 0.00 0.00 43 1014.6
20260503180106 14 269 11.3 19.3 0.00 0.00 0.00 41 1014.7
20260503174559 14 265 6.4 24.1 0.00 0.00 0.00 43 1015.0
20260503173107 14 292 1.6 14.5 0.00 0.00 0.00 49 1015.1
20260503171555 13 265 8.0 19.3 0.00 0.00 0.00 47 1015.3
20260503140108 9 231 4.8 17.7 0.00 0.00 0.00 55 1017.0
20260503110110 0 0 0.0 1.6 0.00 0.00 0.00 92 1016.5
20260503081556 -1 0 0.0 0.0 0.00 0.00 0.00 90 1016.3
20260503071612 -1 0 0.0 0.0 0.00 0.00 0.00 88 1016.3
20260503060116 0 0 0.0 0.0 0.00 0.00 0.00 87 1016.4
20260503054601 0 0 0.0 0.0 0.00 0.00 0.00 86 1016.5
20260503053058 1 0 0.0 0.0 0.00 0.00 0.00 85 1016.5
20260503051555 1 0 0.0 0.0 0.00 0.00 0.00 85 1016.5
20260503050057 2 0 0.0 0.0 0.00 0.00 0.00 86 1016.5
20260503044558 2 0 0.0 0.0 0.00 0.00 0.00 86 1016.6
20260503043059 2 0 0.0 0.0 0.00 0.00 0.00 86 1016.6
20260503041555 2 0 0.0 0.0 0.00 0.00 0.00 85 1016.6
20260503040121 2 0 0.0 0.0 0.00 0.00 0.00 85 1016.7
20260503034601 2 0 0.0 0.0 0.00 0.00 0.00 85 1016.7
20260503033055 2 0 0.0 0.0 0.00 0.00 0.00 84 1016.9
20260503031606 2 0 0.0 0.0 0.00 0.00 0.00 84 1016.9
20260503030058 2 0 0.0 0.0 0.00 0.00 0.00 84 1017.0
20260503024556 2 0 0.0 0.0 0.00 0.00 0.00 83 1017.0
20260503023100 2 0 0.0 0.0 0.00 0.00 0.00 83 1017.2
20260503021600 2 0 0.0 0.0 0.00 0.00 0.00 82 1017.2
20260503020056 2 0 0.0 0.0 0.00 0.00 0.00 82 1017.1
20260503014609 2 0 0.0 0.0 0.00 0.00 0.00 81 1017.1